Newark Heath, OH

10:46 PM EDT on May 25, 2018 (GMT -0400)
Newark Heath

Weather History for KVTA - March, 2013

Change the Weather History Date:

Tuesday, March 26, 2013

  Actual Average Record
Temperature  
Mean Temperature 38 °F -  
Max Temperature 43 °F 55 °F 80 °F (1945)
Min Temperature 33 °F 32 °F 9 °F (2001)
Degree Days  
Heating Degree Days 28    
Moisture  
Dew Point 29 °F    
Average Humidity 75    
Maximum Humidity 89    
Minimum Humidity 47    
Precipitation  
Precipitation 0.00 in - - ()
Sea Level Pressure  
Sea Level Pressure 30.01 in    
Wind  
Wind Speed 9 mph (NW)    
Max Wind Speed 16 mph    
Max Gust Speed 24 mph    
Visibility 9 miles    
Events Snow    
Averages and records for this station are not official NWS values.
T = Trace of Precipitation, MM = Missing Value Source: NWS Daily Summary

Daily Weather History Graph

Daily Weather History Graph

Search for Another Location

Airport or City:

Astronomy

Mar. 26, 2013 Rise Set
Actual Time 7:23 AM EDT 7:48 PM EDT
Civil Twilight 6:56 AM EDT 8:15 PM EDT
Nautical Twilight 6:24 AM EDT 8:47 PM EDT
Astronomical Twilight 5:51 AM EDT 9:20 PM EDT
Moon 7:23 PM EDT 6:39 AM EDT
Length of Visible Light 13h 19m
Length of Day
12h 25m
Waxing Gibbous, 99% of the Moon is Illuminated
Mar 26
Waxing Gibbous
Mar 27
Full
Apr 3
Last Quarter
Apr 10
New
Apr 18
First Quarter

Hourly Weather History & Observations

Time (EDT) Temp. Windchill Dew Point Humidity Pressure Visibility Wind Dir Wind Speed Gust Speed Precip Events Conditions
12:04 AM 33.8 °F 27.0 °F 30.2 °F 87% 29.84 in 4.0 mi NW 8.1 mph - 0.00 in Snow Light Snow
12:12 AM 33.8 °F 27.0 °F 30.2 °F 87% 29.84 in 2.5 mi NW 8.1 mph - 0.00 in Snow Light Snow
12:21 AM 33.8 °F 26.4 °F 30.2 °F 87% 29.84 in 3.0 mi NW 9.2 mph - 0.00 in Snow Light Snow
12:54 AM 34.0 °F 28.0 °F 30.9 °F 89% 29.87 in 6.0 mi NW 6.9 mph - 0.00 in   Overcast
1:14 AM 33.8 °F 27.0 °F 30.2 °F 87% 29.85 in 6.0 mi NW 8.1 mph - 0.00 in Snow Light Snow
1:54 AM 34.0 °F 27.2 °F 28.9 °F 82% 29.89 in 10.0 mi NNW 8.1 mph - 0.00 in   Overcast
2:20 AM 33.8 °F 27.7 °F 28.4 °F 81% 29.87 in 10.0 mi NW 6.9 mph - N/A   Overcast
2:54 AM 33.1 °F 28.7 °F 30.0 °F 89% 29.90 in 10.0 mi WNW 4.6 mph - N/A   Overcast
3:54 AM 33.1 °F 25.5 °F 30.0 °F 89% 29.91 in 9.0 mi NW 9.2 mph - N/A   Overcast
4:54 AM 34.0 °F 26.0 °F 30.0 °F 85% 29.91 in 8.0 mi NW 10.4 mph - N/A   Overcast
5:54 AM 34.0 °F 26.6 °F 30.0 °F 85% 29.93 in 8.0 mi NNW 9.2 mph - N/A   Overcast
6:54 AM 34.0 °F 28.8 °F 28.9 °F 82% 29.96 in 10.0 mi NNW 5.8 mph - N/A   Overcast
7:54 AM 33.1 °F 27.7 °F 28.9 °F 85% 29.98 in 10.0 mi NNW 5.8 mph - N/A   Overcast
8:54 AM 34.0 °F 28.8 °F 28.9 °F 82% 30.00 in 10.0 mi NNW 5.8 mph - N/A   Overcast
9:54 AM 34.0 °F 28.0 °F 28.9 °F 82% 30.02 in 10.0 mi NNW 6.9 mph 17.3 mph N/A   Overcast
10:54 AM 36.0 °F 29.0 °F 30.0 °F 79% 30.04 in 10.0 mi NW 9.2 mph - N/A   Overcast
11:54 AM 37.9 °F 32.1 °F 30.9 °F 76% 30.05 in 10.0 mi WNW 8.1 mph - N/A   Overcast
12:54 PM 41.0 °F 35.2 °F 32.0 °F 70% 30.05 in 10.0 mi NNW 9.2 mph - N/A   Overcast
1:54 PM 39.0 °F 32.3 °F 30.9 °F 73% 30.06 in 10.0 mi NW 10.4 mph - N/A   Overcast
2:39 PM 42.8 °F 36.6 °F 30.2 °F 61% 30.04 in 10.0 mi NW 11.5 mph - N/A   Overcast
2:54 PM 42.1 °F 34.2 °F 28.9 °F 60% 30.06 in 10.0 mi WNW 16.1 mph 24.2 mph N/A   Overcast
3:54 PM 42.1 °F 35.7 °F 26.1 °F 53% 30.06 in 10.0 mi WNW 11.5 mph 21.9 mph N/A   Overcast
4:54 PM 41.0 °F 33.5 °F 21.9 °F 47% 30.07 in 10.0 mi NW 13.8 mph 20.7 mph N/A   Overcast
5:54 PM 42.1 °F 34.5 °F 23.0 °F 47% 30.07 in 10.0 mi NW 15.0 mph - N/A   Overcast
6:54 PM 39.0 °F 32.3 °F 25.0 °F 57% 30.10 in 10.0 mi WNW 10.4 mph - N/A   Mostly Cloudy
7:54 PM 37.9 °F 31.5 °F 25.0 °F 60% 30.12 in 10.0 mi WNW 9.2 mph - N/A   Overcast
8:54 PM 37.0 °F 28.1 °F 26.1 °F 65% 30.14 in 10.0 mi WNW 15.0 mph - N/A   Overcast
9:54 PM 37.0 °F 29.3 °F 27.0 °F 67% 30.15 in 10.0 mi WNW 11.5 mph - N/A   Overcast
10:07 PM 37.4 °F 28.9 °F 28.4 °F 70% 30.13 in 10.0 mi West 13.8 mph 20.7 mph N/A   Overcast
10:16 PM 35.6 °F 27.5 °F 28.4 °F 75% 30.13 in 9.0 mi WNW 11.5 mph 20.7 mph 0.00 in Snow Light Snow
10:54 PM 36.0 °F 28.5 °F 28.0 °F 73% 30.16 in 9.0 mi WNW 10.4 mph - 0.00 in   Overcast
11:54 PM 36.0 °F 28.0 °F 28.0 °F 73% 30.16 in 10.0 mi WNW 11.5 mph 19.6 mph 0.00 in   Overcast